Showing default

KUIPER-00082, 64828

Orbit data source: Space-Track

KUIPER-00082, 64828 is a payload satellite owned by Kuiper Systems (US) in LEO that was launched on Wed, 16 Jul 2025 UTC via an FALCON 9 launch vehicle from the Air Force Eastern Test Range (AFETR). Payload-class satellites include a variety of spacecraft equipped with specific instruments for various scientific and technological missions. These include communications satellites like Starlink; space stations such as the ISS; scientific satellites like the Hubble; Earth observation satellites from companies like Planet Labs, Umbra, and HawkEye 360; GPS; miniature CubeSats for education and research; and military/defense satellites.

Loading next visibility...
Identifier
64828, 2025-151N
Orbit
LEO
Country
Flag of USUS
Related business
Manufacturer
Kuiper Systems
Mission
Operational Commercial Communications
Bus & Motor
KUIPER, Unknown motor
Mass
~490 kg wet, ~490 kg dry
Launch date (UTC)
2025-07-16 (11 months ago)
Launch vehicle
FALCON 9
Launch site
Air Force Eastern Test Range (AFETR)
Object type
Payload
Rocket body
Debris
Shape & HBR
Box + 2 Pan, 3.4 m
Radar Cross Section
2.326 m², Large (>1 m²)

Expand to show TLE details & history
Last TLE update: 9 hours ago

TLE from 9 hours ago
0 KUIPER-00082
1 64828U 25151N   26166.82685880  .00000827  00000-0  13749-3 0  9992
2 64828  51.8999 214.1522 0000477  70.2023 289.8991 14.79927245 50012
Epoch: 2026-06-15T19:50Z
TLE epoch observation values (Epoch: 2026-06-15T19:50:40.600Z)
Latitude
0.00001°
Longitude
12.37537°
Altitude
630.187 km
Speed
7.545 km/s
True Right ascension
14h 16m 36s
True Declination
0° 00' 00"
Sunlit
Object was in full shadow at epoch
Visualization orbit readout
Latitude
Unknown
Longitude
Unknown
Altitude
Unknown
Speed
Unknown
Apparent Right ascension
Unknown
Apparent Declination
Unknown
Sunlit
N/A
Visualization observer readout
Local Sidereal Time
15:49:18
Azimuth
Unknown
Elevation
Unknown
Doppler factor
Unknown
Orbital elements
Apogee altitude
630.339 km
Perigee altitude
629.671 km
Semi-major axis
7,008.142 km
Eccentricity
0.00005
Inclination
51.8999°
RAAN
214.1522°
Arg. of periapsis
70.2023°
True anomaly
289.89396°
Mean anomaly
289.8991°
Eccentric anomaly
289.89653°
Mean motion
3.69946 °/min
Orbital period
97.31 mins
BSTAR
0.00013749
Loading maneuver chart data...
Computing Atmospheric mass density...
Loading historical data...
Loading historical data...
Loading historical data...
Loading historical data...
Loading historical data...
Loading historical data...
Loading historical data...

Documentation

Showing up to 5 results
|